Fort Polk, LA

2:22 AM CST on November 22, 2017 (GMT -0600)
Fort Polk

Weather History for KBKB - April, 2014

Change the Weather History Date:

Sunday, April 13, 2014

  Actual Average (KPOE) Record (KPOE)
Temperature  
Mean Temperature 74 °F -  
Max Temperature 79 °F 74 °F 84 °F (2001)
Min Temperature 69 °F 54 °F 39 °F (1997)
Cooling Degree Days 9    
Growing Degree Days 24 (Base 50)    
Moisture  
Dew Point 65 °F    
Average Humidity 80    
Maximum Humidity 91    
Minimum Humidity 60    
Precipitation  
Precipitation 0.47 in - - ()
Sea Level Pressure  
Sea Level Pressure 29.90 in    
Wind  
Wind Speed 6 mph (South)    
Max Wind Speed 10 mph    
Max Gust Speed 24 mph    
Visibility 8 miles    
Events Rain , Thunderstorm    
Averages and records for this station are not official NWS values.
T = Trace of Precipitation, MM = Missing Value Source: NWS Daily Summary

Daily Weather History Graph

Daily Weather History Graph

Search for Another Location

Airport or City:

Trip Planner

Search our weather history database for the weather conditions in past years. The results will help you decide how hot, cold, wet, or windy it might be!

Date:

Astronomy

Apr. 13, 2014 Rise Set
Actual Time 6:46 AM CDT 7:38 PM CDT
Civil Twilight 6:21 AM CDT 8:03 PM CDT
Nautical Twilight 5:52 AM CDT 8:32 PM CDT
Astronomical Twilight 5:22 AM CDT 9:02 PM CDT
Moon 6:21 PM CDT (4/13) 5:38 AM CDT (4/13)
Length of Visible Light 13h 42m
Length of Day
12h 52m
Waxing Gibbous, 97% of the Moon is Illuminated
Apr 13
Waxing Gibbous
Apr 15
Full
Apr 22
Last Quarter
Apr 29
New
May 6
First Quarter

Hourly Weather History & Observations

Time (CDT) Temp. Dew Point Humidity Pressure Visibility Wind Dir Wind Speed Gust Speed Precip Events Conditions
12:08 AM 69.1 °F 63.0 °F 81% 29.94 in 10.0 mi Variable 6.9 mph - N/A   Overcast
12:54 AM 69.1 °F 64.0 °F 84% 30.01 in 10.0 mi Variable 6.9 mph - N/A   Overcast
1:04 AM 69.1 °F 64.0 °F 84% 29.94 in 10.0 mi Variable 5.8 mph - N/A   Overcast
1:23 AM 69.1 °F 64.0 °F 84% 29.92 in 10.0 mi SSE 8.1 mph - N/A   Mostly Cloudy
1:54 AM 69.1 °F 63.0 °F 81% 30.00 in 10.0 mi Variable 6.9 mph - N/A   Mostly Cloudy
2:54 AM 69.1 °F 63.0 °F 81% 29.99 in 10.0 mi Variable 4.6 mph - N/A   Overcast
3:34 AM 69.1 °F 63.0 °F 81% 29.90 in 10.0 mi South 8.1 mph - N/A   Overcast
3:54 AM 69.1 °F 64.0 °F 84% 29.98 in 10.0 mi Variable 6.9 mph - N/A   Overcast
4:54 AM 69.1 °F 64.0 °F 84% 29.97 in 10.0 mi Calm Calm - N/A   Mostly Cloudy
5:01 AM 69.1 °F 64.0 °F 84% 29.89 in 10.0 mi Variable 4.6 mph - N/A   Mostly Cloudy
5:27 AM 69.1 °F 64.0 °F 84% 29.89 in 10.0 mi Variable 3.5 mph - N/A   Overcast
5:54 AM 69.1 °F 64.0 °F 84% 29.97 in 10.0 mi Variable 3.5 mph - N/A   Mostly Cloudy
6:06 AM 69.1 °F 64.0 °F 84% 29.89 in 10.0 mi Variable 4.6 mph - N/A   Mostly Cloudy
6:54 AM 69.1 °F 64.0 °F 84% 29.99 in 10.0 mi Variable 4.6 mph - N/A   Mostly Cloudy
7:54 AM 71.1 °F 64.9 °F 81% 29.99 in 10.0 mi Variable 4.6 mph - N/A   Overcast
8:39 AM 71.1 °F 64.9 °F 81% 29.92 in 10.0 mi Variable 5.8 mph - N/A   Overcast
8:54 AM 71.1 °F 64.9 °F 81% 30.01 in 10.0 mi Variable 4.6 mph - N/A   Overcast
9:40 AM 72.0 °F 64.9 °F 78% 29.94 in 10.0 mi Variable 6.9 mph - N/A   Overcast
9:54 AM 73.0 °F 64.9 °F 76% 30.02 in 10.0 mi Variable 4.6 mph - N/A   Overcast
10:54 AM 75.0 °F 64.9 °F 71% 30.01 in 10.0 mi Variable 5.8 mph - N/A   Overcast
11:54 AM 77.0 °F 64.9 °F 66% 29.99 in 10.0 mi Variable 4.6 mph - N/A   Overcast
12:17 PM 77.0 °F 64.0 °F 64% 29.90 in 10.0 mi South 8.1 mph - N/A   Overcast
12:54 PM 78.1 °F 64.9 °F 64% 29.97 in 10.0 mi Variable 5.8 mph - N/A   Overcast
1:43 PM 78.1 °F 64.9 °F 64% 29.89 in 10.0 mi Variable 4.6 mph - N/A   Overcast
1:54 PM 77.0 °F 66.0 °F 69% 29.97 in 10.0 mi Variable 6.9 mph - N/A   Overcast
2:06 PM 78.1 °F 64.9 °F 64% 29.88 in 10.0 mi Variable 5.8 mph - N/A   Mostly Cloudy
2:54 PM 79.0 °F 64.9 °F 62% 29.92 in 10.0 mi Variable 5.8 mph 24.2 mph N/A   Mostly Cloudy
3:54 PM 78.1 °F 63.0 °F 60% 29.92 in 10.0 mi South 8.1 mph - N/A   Overcast
4:54 PM 78.1 °F 64.0 °F 62% 29.89 in 10.0 mi SSE 8.1 mph - N/A   Mostly Cloudy
5:54 PM 73.0 °F 66.9 °F 81% 29.91 in 10.0 mi Calm Calm - 0.02 in   Overcast
6:54 PM 73.0 °F 66.0 °F 79% 29.87 in 7.0 mi Variable 3.5 mph - 0.01 in Rain , Thunderstorm Light Thunderstorms and Rain
7:39 PM 70.0 °F 66.0 °F 87% 29.76 in 2.5 mi SE 10.4 mph 23.0 mph 0.21 in Rain , Thunderstorm Heavy Thunderstorms and Rain
7:50 PM 69.8 °F 66.2 °F 88% 29.78 in 3.0 mi South 9.2 mph - 0.26 in Rain , Thunderstorm Thunderstorms and Rain
7:54 PM 70.0 °F 66.9 °F 90% 29.86 in 3.0 mi Variable 6.9 mph - 0.27 in Rain , Thunderstorm Thunderstorms and Rain
8:00 PM 70.0 °F 66.9 °F 90% 29.78 in 4.0 mi Variable 5.8 mph - 0.00 in Rain , Thunderstorm Light Rain
8:05 PM 71.1 °F 66.9 °F 87% 29.78 in 7.0 mi Variable 4.6 mph - 0.00 in Rain Light Rain
8:22 PM 71.1 °F 66.9 °F 87% 29.78 in 8.0 mi Variable 3.5 mph - 0.01 in Rain Light Rain
8:54 PM 71.1 °F 68.0 °F 90% 29.84 in 6.0 mi Variable 6.9 mph - 0.02 in Rain Light Rain
9:25 PM 72.0 °F 68.0 °F 87% 29.77 in 4.0 mi Variable 4.6 mph - 0.01 in Rain Light Rain
9:54 PM 72.0 °F 69.1 °F 91% 29.84 in 3.0 mi Variable 4.6 mph - 0.02 in Rain Light Rain
10:11 PM 72.0 °F 69.1 °F 91% 29.76 in 5.0 mi Variable 5.8 mph - 0.01 in Rain Light Rain
10:54 PM 73.0 °F 69.1 °F 87% 29.86 in 3.0 mi South 5.8 mph - 0.04 in Rain Light Rain
11:02 PM 73.0 °F 69.1 °F 87% 29.78 in 2.5 mi Variable 3.5 mph - 0.02 in Rain Light Rain
11:30 PM 73.0 °F 69.1 °F 87% 29.78 in 3.0 mi Variable 4.6 mph - 0.07 in Rain Light Rain
11:54 PM 72.0 °F 69.1 °F 91% 29.84 in 3.0 mi Variable 4.6 mph - 0.09 in Rain Light Rain